Hourly Data Report for February 07, 2002

SHERBROOKE A
QUEBEC

45°26'00.000" N
71°41'00.000" W
241.40 m
7028124
71610
YSC

Download Data

Hourly Data (February 2002)
Hourly Data Report for February 7, 2002
TIME
LST
Temp Definition
°C
Dew Point Definition
°C
Rel Hum Definition
%
Precip. Amount Definition
mm

Wind Dir Definition
10's deg

Wind Spd Definition
km/h
Visibility Definition
km
Stn Press Definition
kPa
Hmdx Definition


Wind Chill Definition


Weather Definition


00:00 -8.6 -12.1 76   9 4 15.0 98.70   -11  
01:00 -8.5 -12.0 76   5 4 15.0 98.68   -11  
02:00 -8.9 -12.3 76     0 15.0 98.67      
03:00 -8.6 -12.1 76   8 6 15.0 98.61   -12  
04:00 -8.5 -11.8 77   8 4 15.0 98.55   -11  
05:00 -8.3 -11.6 77   5 4 15.0 98.51   -10  
06:00 -8.1 -11.3 78     0 15.0 98.51      
07:00 -7.9 -11.0 78   35 4 15.0 98.48   -10  
08:00 -7.5 -10.9 77     0 19.3 98.44     Mostly Cloudy
09:00 -6.0 -10.1 73   7 4 19.3 98.37   -8 Cloudy
10:00 -3.6 -8.6 68   10 7 19.3 98.26   -7 Cloudy
11:00 -0.7 -7.7 59   17 11 24.1 98.20   -4 Mostly Cloudy
12:00 0.3 -7.5 56   19 11 24.1 98.03     Mostly Cloudy
13:00 1.5 -6.6 55   20 9 24.1 97.84     Cloudy
14:00 2.1 -6.9 51   18 17 24.1 97.70     Mostly Cloudy
15:00 2.5 -6.6 51   19 17 24.1 97.65     Mostly Cloudy
16:00 2.6 -6.6 51   18 13 24.1 97.57     Mainly Clear
17:00 1.4 -6.7 55   18 7 24.1 97.49     Mainly Clear
18:00 0.1 -7.2 58   19 7 15.0 97.50      
19:00 -1.1 -7.5 62   17 6 15.0 97.50   -3  
20:00 -0.6 -7.2 61   20 7 15.0 97.54   -3  
21:00 -0.5 -7.0 61   18 9 15.0 97.53   -4  
22:00 -0.3 -5.5 68   23 6 12.9 97.51   -2 Snow
23:00 -0.3 -4.6 73   21 9 12.9 97.49   -3 Snow

Notes on Data Quality.

Legend

  • E = Estimated
  • M = Missing
  • NA = Not Available*
  • [empty] = Indicates an unobserved value
Date modified: